Kosmos-2317

operational
NORAD ID: 23621 Int'l Des: 1995-037 Owner: VKS/IACG Country: RU Constellation: GLONASS
MEOCIRCULAR

Kosmos-2317について

説明を読み込み中...

リアルタイム位置

3D地球を読み込み中...

次回通過

高度履歴

Altitude vs Time

uPlot chart will show altitude changes over time

軌道要素

1 23621U 95037B 25300.90797591 .00000013 00000-0 00000-0 0 9999
2 23621 65.4773 210.4657 0009484 169.0123 12.9169 2.13101734235303
Epoch: Oct 27, 2025 • Age: 110 hours

現在のステータス

高度 19129.8 km
速度 3.96 km/s
衛星直下点 62.17°N, 110.2°E
打ち上げ日 Jul 24, 1995
運用期間 30.2 years
タイプ other

技術仕様

分類 Payload
質量 1300.00 kg
乾燥質量 1200.00 kg
総質量 1300.00 kg
長さ 4.00 m
直径 1.50 m
スパン 7.80 m
形状 Cyl + Ant + 2 Pan
製造者 POL
バスタイプ Uragan
フェーズステータス In Orbit
所有者/国 VKS/IACG/RU

大規模コンステレーション

Loading constellations...